www.pogodaiklimat.ru

Погода и климат >> Архив погоды >> Украина >> Черновцы


АРХИВ ПОГОДЫ в Черновцах

Время (UTC), дата Ветер
(напр.,м/с)
 
Видим.   Явления Облачность Т
(С)
Тd
(С)
f
(%)
Тe
(С)
Тes
(С)
Комфортность P
(гПа)
Po
(гПа)
Тmin
(С)
Tmax
(С)
R
(мм)
R24
(мм)
S
(см)
06 17.03 штиль 0 50 км 9/9 1500 м
[Sc]
+4.2 -1.2 68 +4 +4 тепло 1012.5 982.4 +3.2
09 17.03 ЮВ 2 50 км 9/9 1350 м
[Sc]
+9.9 +1.0 54 +9 +10 тепло 1012.6 983.1
12 17.03 ЮВ 1 50 км 3/0
[Ac trans]
+15.5 +3.4 44 +16 +24 тепло 1009.9 981.1
15 17.03 С 2 50 км 8/0
[Ci fib]
+18.0 +4.2 40 +19 +19 тепло 1008.7 980.2
18 17.03 ЮЗ 2 30 км 3/0
[Ci fib]
+14.7 +2.8 45 +15 +15 тепло 1009.7 980.8 +18.4
21 17.03 штиль 0 19 км 8/0
[Ci fib]
+8.2 +1.1 61 +8 +8 тепло 1010.8 981.2
00 18.03 ЮВ 2 18 км 3/0
[Ci fib]
+5.0 +0.9 75 +3 +3 тепло 1011.6 981.6
03 18.03 В 2 8000 м дымка ясно +1.8 +1.3 96 -2 -2 по сезону 1010.7 980.4
06 18.03 В 4 13 км 3/0
[Ci fib]
+1.8 +1.3 96 -3 -2 по сезону 1011.1 980.8 +0.2
09 18.03 СВ 3 17 км 4/0
[Ci fib]
+12.6 +1.2 46 +12 +18 тепло 1009.8 980.7
12 18.03 З 5 50 км 8/0
[Ac trans Ci fib]
+21.5 +1.6 27 +21 +24 комфорт 1008.8 980.6
15 18.03 СЗ 6 35 км 8/0
[Ac trans Ci fib]
+16.8 +4.7 45 +16 +16 тепло 1010.7 982.0
18 18.03 СЗ 5 16 км 8/0
[Ac trans]
+11.3 +4.5 63 +9 +9 тепло 1014.8 985.4 +21.5
21 18.03 СЗ 4 18 км 6/0
[Ac trans]
+7.1 +4.1 81 +4 +4 тепло 1017.5 987.6
00 19.03 З 5 15 км 6/0
[Ac trans]
+6.0 +4.1 88 +2 +2 тепло 1019.2 989.1
03 19.03 СЗ 3 19 км {ливн. осадки} 10/6 840 м
[Cb calv Ac As]
+6.0 +4.6 91 +3 +3 тепло 1020.0 989.9
06 19.03 СЗ 4 19 км {ливн. осадки} 10/10 500 м
[St]
+5.9 +4.3 89 +2 +2 тепло 1021.6 991.5 +5.7 0.0
09 19.03 СЗ 3 27 км 10/10 870 м
[Sc]
+6.4 +4.1 85 +3 +3 по сезону 1023.1 993.0
12 19.03 З 4 30 км в посл. час ливневой дождь 10/5 660 м
[Cb calv Ac und]
+7.7 +3.8 76 +4 +5 по сезону 1023.0 993.0
15 19.03 СЗ 3 5000 м слаб. ливневой дождь 10/6 630 м
[Cb calv Ac und]
+6.9 +4.1 82 +4 +4 по сезону 1024.1 994.0
18 19.03 З 2 6000 м слаб. ливневой дождь 10/6 660 м
[Cb calv Ac und]
+6.0 +4.9 93 +3 +3 по сезону 1025.9 995.7 +8.3 4
21 19.03 ЮЗ 2 5000 м слаб. ливневой дождь 10/6 570 м
[Cb calv Ac und]
+5.1 +4.9 99 +2 +2 по сезону 1027.1 996.7
00 20.03 ЮЗ 2 9000 м в посл. час ливневой дождь 10/5 840 м
[Cb calv Ac und]
+4.5 +4.0 97 +2 +2 тепло 1027.6 997.1
03 20.03 СЗ 2 17 км 10/10 1020 м
[Sc]
+5.0 +3.6 91 +2 +2 тепло 1028.2 997.8
06 20.03 СЗ 4 30 км 10/10 1500 м
[Sc]
+4.7 +1.9 82 +1 +1 тепло 1030.0 999.5 +4.1 6
09 20.03 СЗ 5 20 км слаб. ливневой дождь 10/4 1000 м
[Cb calv Ac und]
+4.9 +1.3 77 0 +1 по сезону 1031.8 1001.2
12 20.03 СЗ 5 35 км {ливн. осадки} 10/0
[Ac und]
+6.0 +1.8 74 +2 +3 по сезону 1032.2 1001.7
15 20.03 З 3 30 км 10/0
[Ac und]
+6.8 +0.7 65 +4 +4 по сезону 1032.2 1001.8
18 20.03 З 2 25 км 9/0
[Ac trans]
+6.2 +0.6 67 +4 +4 по сезону 1033.2 1002.7 +7.2 0.0
21 20.03 СЗ 2 16 км 9/0
[Ac trans]
+4.6 +1.3 79 +2 +2 по сезону 1034.2 1003.5
00 21.03 СЗ 2 6000 м дымка 3/0
[Ac trans]
+2.9 +1.3 89 -0 -0 по сезону 1034.5 1003.6
03 21.03 СЗ 3 4200 м дымка 3/0
[Ac trans]
+1.0 +0.7 98 -4 -4 по сезону 1034.2 1003.1
06 21.03 СЗ 2 6000 м дымка 8/0
[Ci fib]
-0.4 -0.7 98 -4 -3 по сезону 1034.6 1003.4 -1.0
09 21.03 СЗ 5 35 км 10/0
[Cs]
+6.9 -1.7 54 +3 +7 по сезону 1033.7 1003.3
12 21.03 СЗ 6 50 км 8/0
[Ac trans Cs]
+10.2 -5.7 32 +8 +10 тепло 1031.3 1001.3
15 21.03 СЗ 4 50 км 9/6 1350 м
[Sc Ac trans]
+11.0 -3.3 37 +9 +9 тепло 1030.4 1000.5
18 21.03 СЗ 5 20 км слаб. ливневой дождь 9/9 1000 м
[Sc]
+9.4 +0.8 55 +7 +7 тепло 1030.7 1000.6 +11.4 0.0
21 21.03 СЗ 4 25 км {ливн. осадки} 9/9 1500 м
[Sc]
+8.5 +2.3 65 +6 +6 тепло 1031.4 1001.2
00 22.03 СЗ 5 25 км {ливн. осадки} 9/9 1470 м
[Sc]
+8.4 +2.7 67 +5 +5 тепло 1031.1 1000.9 0.0
03 22.03 З 5 25 км 9/9 1320 м
[Sc]
+8.2 +3.0 70 +5 +5 тепло 1030.4 1000.2
06 22.03 З 5 30 км 9/9 1080 м
[Sc]
+7.9 +2.1 67 +4 +5 тепло 1030.4 1000.2 +7.9 0.0
09 22.03 СЗ 7 35 км 8/8 1050 м
[Sc]
+11.0 +3.0 58 +8 +8 тепло 1029.5 999.7
12 22.03 З 6 25 км 8/8 750 м
[Sc]
+12.0 +5.8 66 +9 +10 тепло 1027.9 998.2
15 22.03 СЗ 7 25 км 8/8 1020 м
[Sc]
+12.0 +5.3 64 +9 +9 тепло 1026.5 996.9
18 22.03 СЗ 5 19 км 9/9 1440 м
[Sc]
+11.0 +5.8 70 +8 +8 тепло 1027.9 998.1 +12.1
21 22.03 СЗ 6 35 км 8/8 1500 м
[Sc]
+10.0 +4.9 71 +7 +7 тепло 1027.9 998.0
00 23.03 С 4 15 км 4/0
[Ac trans]
+7.8 +4.4 79 +5 +5 тепло 1028.5 998.4
03 23.03 СЗ 2 50 км 4/0
[Ci fib]
+4.5 0.0 73 +2 +2 по сезону 1028.8 998.3
06 23.03 С 3 35 км 4/0
[Ci fib]
+2.0 -2.3 73 -2 -0 по сезону 1029.7 998.9 +2.0
09 23.03 С 7 50 км 3/0
[Ci fib]
+8.5 -6.1 35 +5 +7 по сезону 1028.3 998.2
12 23.03 СЗ 7 50 км 3/0
[Ci fib]
+11.0 -10.1 22 +8 +11 по сезону 1026.4 996.6
15 23.03 СЗ 7 50 км 4/0
[Ci fib]
+12.5 -11.8 17 +10 +11 тепло 1024.6 995.0
18 23.03 СЗ 3 13 км ясно +8.6 -12.5 21 +7 +7 тепло 1025.5 995.5 +12.9
21 23.03 штиль 0 13 км ясно +6.0 -11.2 28 +6 +6 тепло 1026.1 995.8
00 24.03 штиль 0 10 км ясно +2.1 -7.5 49 +2 +2 по сезону 1024.9 994.2

 

Местоположение метеостанции Черновцы (Черновицкая область, Украина): широта 48.37 долгота 25.90 высота над уровнем моря 246 м.

В архиве по умолчанию представлена погода в Черновцах за последнюю неделю. Архивные данные за месяц целиком и за предыдущие месяцы, начиная с января 2011 года, Вы можете получить, выбрав интересующий диапазон дат из раскрывающегося списка и нажав кнопку "Ввод!".


*Определитесь, кто Вы:
робот инопланетянин человек

Внимание! Время в таблицах - всемирное. Для получения местного времени необходимо прибавить поправку, которая равна 2 ч.

Смотрите также архив погоды в соседних городах и на ближайших метеорологических станциях:

Погода в Дарабани (Румыния) (54 км)
Погода в Рэдэуци (Румыния) (60 км)
Погода в Каменец-Подольском (Хмельницкая область, Украина) (65 км)
Погода в Коломые (Ивано-Франковская область, Украина) (67 км)
Погода в Чорткове (Тернопольская область, Украина) (73 км)
Погода в Селятине (Черновицкая область, Украина) (75 км)
Погода в Сучава (Румыния) (86 км)
Погода в Бричанах (Молдова) (87 км)
Погода в Ботошани (Румыния) (90 км)
Погода на Пожежевской (Ивано-Франковская область, Украина) (107 км)

Пояснения к столбцам:

Ветер - указаны скорость ветра в м/с - средняя за 10 мин, порывы в срок и между сроками (в фигурных скобках) и направление, откуда дует ветер: С - северный, СВ - северо-восточный, В - восточный, ЮВ - юго-восточный, Ю - южный, ЮЗ - юго-западный, З - западный, СЗ - северо-западный.
Видимость - горизонтальная дальность видимости в метрах или километрах. При видимости от 1 до 10 км при отсутствии осадков обычно наблюдается дымка, при ухудшении видимости до 1 км и менее - туман. В сухую погоду видимость может ухудшаться дымом, пылью или мглою.
Явления - указаны атмосферные явления, наблюдавшиеся в срок или в последний час перед сроком; фигурными скобками обозначены явления, наблюдавшиеся между сроками (за 1-3 часа до срока); квадратными скобками обозначены град или гололедные отложения с указанием их диаметра в мм.
Облачность - указаны через наклонную черту общая и нижняя облачность в баллах и высота нижней границы облаков в метрах; квадратными скобками обозначены формы облаков: Ci - перистые, Cs - перисто-слоистые, Cc - перисто-кучевые, Ac - высококучевые, As - высокослоистые, Sc - слоисто-кучевые, Ns - слоисто-дождевые, Cu - кучевые, Cb - кучево-дождевые. Подробнее классификацию облаков см. в Атласе облаков (PDF).
T - Температура воздуха - температура, измеренная на высоте 2 м над землей.
Td - Температура точки росы - температура, при понижении до которой содержащийся в воздухе водяной пар достигнет насыщения.
f - Относительная влажность воздуха - влажноcть воздуха, измеренная на высоте 2 м над землей.
Te - Эффективная температура - температура, которую ощущает одетый по сезону человек в тени. Характеристика душности погоды. При расчете учитывается влияние влажности воздуха и скорости ветра на теплоощущения человека.
Tes - Эффективная температура на солнце - температура, которую ощущает человек, с поправкой на солнечный нагрев. Характеристика знойности погоды. Зависит от высоты солнца над горизонтом, облачности и скорости ветра. Ночью, в пасмурную погоду, а также при ветре 12 м/с и более поправка равна нулю.
P - Атмосферное давление - приведенное к уровню моря атмосферное давление.
Po - Атмосферное давление - измеренное на уровне метеостанции атмосферное давление.
Tmin - Минимальная температура - минимум температуры воздуха на высоте 2 м над землей.
Tmax - Максимальная температура - максимум температуры воздуха на высоте 2 м над землей.
R - Количество осадков - Количество выпавших осадков за период времени, мм. При наведении курсора мыши на число - период времени, за который выпало указанное количество осадков.
R24 - Количество осадков - Количество выпавших осадков за 24 часа, мм.
S - Снежный покров - Высота снежного покрова, см. При наведении курсора мыши на число - состояние снежного покрова и степень покрытия местности в баллах.